Wind_Speed
19 19 18 18 18 19 22 23 24 25 24 23 23 22 21 19 17 17 17 17 18 18 16 15 16 17 17 16 15 16 16 15 15 15 14 15 14 14 14 13 12 13
14 15 16 17 17 18 20 24 26 26 26 26 25 25 24 21 17 16 16 16 17 17 15 14 15 16 16 16 15 15 15 15 15 15 14 14 14 13 13 13 13 13
15 14 14 16 19 18 17 22 25 27 27 27 27 28 27 23 18 16 15 15 15 16 15 13 14 15 16 16 15 14 14 15 15 15 15 13 13 13 13 12 12 12
18 16 14 16 20 20 19 21 23 25 26 27 28 28 27 25 20 19 17 15 14 14 13 12 12 14 16 16 15 14 12 14 14 14 14 13 12 13 12 11 11 10
19 17 16 17 20 21 21 22 23 24 25 26 26 25 26 26 22 20 19 17 14 13 12 11 10 13 15 15 15 13 12 13 13 13 13 13 12 12 11 10 9 9
19 18 17 18 19 19 20 21 23 22 20 21 23 23 25 25 23 21 21 20 16 13 12 11 10 11 13 14 13 13 11 11 12 11 12 13 12 12 11 9 7 8
21 20 18 18 17 17 18 19 20 18 17 18 20 21 23 24 23 22 22 21 17 14 12 11 10 10 12 13 12 12 12 11 11 11 11 12 12 12 10 8 7 8
21 21 19 18 17 17 17 17 18 18 18 19 21 21 21 21 19 19 22 21 17 14 12 10 9 9 11 12 10 11 12 12 11 11 11 11 11 11 10 8 7 8
21 20 20 19 17 17 17 17 18 19 20 21 22 21 19 18 17 19 21 20 17 16 13 10 9 9 9 10 10 9 10 12 12 11 11 11 11 11 11 9 7 9
21 21 20 19 19 18 18 18 18 18 19 20 21 21 19 18 19 19 20 19 17 16 14 11 9 8 8 9 10 9 9 10 11 11 10 11 11 11 10 9 8 9
20 21 20 19 19 18 18 18 17 17 17 18 18 19 19 18 19 19 20 20 18 16 15 13 10 8 8 9 10 10 8 8 10 11 11 10 10 10 10 9 9 9
20 21 20 19 18 18 18 18 17 17 17 17 17 17 17 17 18 18 20 22 20 17 16 14 11 9 8 8 9 9 8 8 9 10 11 10 10 10 9 9 9 10
21 21 21 20 20 19 19 18 18 18 18 18 18 18 17 17 16 16 20 24 21 18 17 15 13 10 8 8 8 8 8 8 8 9 10 10 9 10 9 9 9 10
22 22 21 22 22 22 21 19 18 18 18 19 19 19 19 18 17 15 18 23 21 20 18 16 14 11 9 9 8 7 8 8 8 8 8 9 9 10 10 9 10 10
23 24 23 22 22 23 22 21 19 19 19 20 19 19 19 20 21 18 18 22 23 22 20 18 15 13 11 10 9 7 7 8 8 8 8 8 9 9 10 10 10 10
25 25 23 22 23 23 22 22 22 21 21 21 21 20 19 20 21 21 19 20 24 24 22 20 18 15 13 12 10 8 7 7 8 9 8 8 8 9 10 10 11 11
30 28 24 22 22 23 23 23 23 23 22 22 22 21 20 19 20 20 20 20 23 25 23 21 19 17 14 13 11 9 7 7 7 8 8 7 8 8 9 11 11 11
30 29 26 23 20 21 23 24 24 23 22 22 22 22 22 21 20 20 20 19 21 24 24 23 21 19 16 14 13 11 9 8 8 8 8 7 7 7 9 11 12 12
27 28 28 26 21 18 21 24 24 22 21 21 22 22 23 22 21 22 21 19 19 23 25 24 23 21 19 15 14 13 11 10 9 9 8 7 6 6 8 11 13 13
25 26 27 27 23 18 18 21 23 22 20 20 20 20 21 22 22 22 23 22 20 19 23 25 24 22 20 18 16 15 15 13 11 10 9 7 5 6 8 10 12 14
23 23 23 25 23 20 18 19 22 21 20 19 19 19 19 19 20 21 22 23 22 20 20 25 28 25 22 21 20 18 17 16 13 11 11 9 6 5 7 9 12 14
21 19 20 22 22 20 18 18 20 21 21 20 19 19 19 18 17 18 20 22 22 22 21 22 26 27 24 22 22 21 20 18 16 14 12 10 7 6 6 8 11 14
18 18 19 20 21 20 18 18 20 21 22 22 20 18 19 19 18 17 17 19 19 20 22 21 20 24 25 23 22 24 24 21 18 16 15 12 10 8 6 7 9 13
18 17 19 20 20 19 18 18 19 20 21 22 21 18 17 18 19 18 17 18 18 17 19 21 20 19 22 24 23 25 27 25 22 20 17 15 13 10 8 7 8 11
21 18 18 19 19 18 17 17 18 19 20 22 22 20 17 16 16 17 17 17 17 17 16 18 20 20 20 23 24 25 27 27 26 23 20 18 15 13 11 8 7 9
23 21 19 18 18 17 16 16 16 17 19 22 23 22 19 16 15 15 15 16 17 17 15 15 19 20 21 23 23 24 27 28 28 26 23 20 18 16 14 11 8 8
Wind_Direction
281 275 276 285 287 284 282 283 285 288 291 291 292 293 291 292 297 302 308 313 314 315 314 312 314 315 312 309 305 300 297 295 292 289 283 278 273 268 269 269 268 267
293 281 273 278 280 275 273 273 274 277 282 283 282 284 283 280 282 290 298 305 309 310 308 306 310 312 311 309 305 299 296 293 291 288 281 276 272 267 266 266 265 264
319 304 283 278 281 282 281 277 273 272 274 276 275 277 281 282 279 281 288 293 299 303 301 300 308 311 309 309 306 300 296 292 288 286 281 277 273 268 265 263 263 263
334 320 300 289 288 292 293 289 283 275 271 272 275 277 280 284 283 279 280 283 286 293 294 294 305 308 306 306 305 299 293 287 284 282 279 276 272 270 267 264 264 263
339 330 315 300 293 295 297 295 292 284 275 272 276 278 278 281 282 277 277 278 278 283 286 288 299 305 304 304 303 297 290 282 280 277 275 273 271 269 268 264 262 260
338 334 324 312 304 302 302 300 299 295 285 278 279 283 281 278 274 272 274 274 272 274 277 281 292 299 300 300 300 295 286 279 275 270 267 270 269 267 266 265 259 256
335 334 330 323 313 308 308 306 304 301 295 289 286 286 284 278 272 268 266 266 266 265 265 271 283 291 293 296 299 295 287 279 274 267 261 263 266 266 265 263 258 255
329 330 331 328 319 314 311 309 308 305 299 296 293 290 287 281 273 263 259 260 260 254 251 258 272 282 289 295 301 299 290 283 276 267 260 257 259 263 263 258 249 252
326 325 326 327 324 319 314 312 311 309 302 296 294 294 290 280 269 262 259 257 253 247 242 244 258 271 283 294 303 300 287 281 277 267 257 252 249 252 258 256 242 242
331 329 326 325 324 321 320 318 315 311 305 298 295 295 291 277 269 267 260 249 243 245 242 237 244 259 276 293 301 299 287 278 276 269 258 251 243 240 247 251 242 235
333 332 330 328 325 323 322 321 318 314 310 307 304 301 294 281 274 271 257 240 234 240 243 240 239 246 264 287 297 298 293 282 275 270 262 252 243 238 238 241 238 232
327 326 326 328 329 328 327 325 322 319 316 315 313 310 301 291 284 273 250 232 226 233 241 244 239 239 253 273 291 300 300 291 277 268 261 253 245 240 237 234 234 231
325 323 321 322 324 326 326 324 322 320 318 317 315 312 306 298 294 277 242 225 222 227 237 244 242 240 248 261 279 297 303 300 286 269 260 253 246 242 239 234 233 230
322 323 322 321 320 320 320 318 315 314 314 315 313 311 306 297 291 274 238 224 223 226 232 240 240 239 245 253 264 285 301 305 295 279 265 253 246 244 242 239 236 232
318 318 319 320 319 318 316 312 309 308 309 311 312 310 306 297 289 279 252 230 224 226 229 231 234 240 246 247 253 269 292 307 306 293 275 254 245 242 242 242 240 234
312 312 314 315 314 313 312 310 307 306 304 306 308 308 307 301 294 290 276 247 228 225 227 225 226 236 246 248 250 258 276 301 311 300 283 261 246 240 238 240 240 235
308 309 310 309 305 303 304 304 304 304 303 302 302 304 306 306 301 296 286 264 241 231 229 226 223 226 236 246 250 254 266 288 305 302 286 268 253 245 239 238 238 236
310 312 314 313 305 298 295 295 297 300 301 300 298 297 298 301 304 300 291 273 251 238 233 229 225 221 223 236 248 253 259 270 286 298 293 275 258 249 243 240 237 235
310 314 318 319 316 305 294 293 296 298 299 297 295 296 294 293 297 299 298 287 261 243 234 231 230 226 221 224 237 246 252 258 267 282 291 284 266 250 243 241 237 233
308 315 319 320 320 315 303 298 298 301 302 298 293 294 296 294 292 293 296 296 284 261 243 235 235 235 229 223 227 234 241 248 254 264 277 284 278 258 245 242 240 235
317 321 320 318 320 322 314 304 300 302 305 303 297 296 297 298 296 292 291 295 299 294 271 246 236 236 234 228 226 229 233 239 243 251 263 272 278 268 250 243 243 240
331 326 319 317 320 325 322 310 301 299 302 304 304 303 302 303 303 298 295 295 298 301 295 268 240 234 237 236 231 229 230 233 236 242 251 258 265 268 254 241 240 239
330 322 317 317 319 323 325 317 307 302 301 303 307 311 310 308 307 305 302 303 301 298 299 290 261 242 241 242 237 232 231 230 230 234 241 246 251 260 256 242 237 236
328 320 314 314 315 319 324 322 314 309 305 302 307 315 317 313 313 312 308 308 310 306 297 293 286 268 254 247 240 232 230 230 228 227 233 238 240 247 251 242 233 231
336 329 317 310 309 314 319 317 312 309 304 301 304 312 316 316 315 316 315 312 312 314 309 296 289 283 272 262 249 232 224 229 230 227 227 232 234 236 242 242 232 228
340 336 327 317 311 309 309 307 305 301 297 298 301 305 308 310 310 310 314 316 313 314 323 317 298 283 273 269 261 241 225 225 229 229 227 228 230 231 233 237 235 228
Height
3161 3161 3160 3159 3158 3157 3156 3155 3154 3153 3153 3153 3153 3152 3152 3151 3149 3148 3147 3146 3145 3144 3142 3141 3139 3137 3136 3134 3133 3131 3131 3130 3129 3129 3128 3127 3126 3126 3126 3126 3126 3126
3159 3159 3158 3156 3154 3153 3152 3152 3151 3150 3150 3150 3149 3149 3149 3148 3147 3145 3144 3143 3143 3142 3141 3139 3138 3136 3134 3132 3131 3130 3129 3128 3127 3127 3126 3125 3125 3124 3124 3124 3124 3124
3158 3157 3155 3152 3149 3149 3149 3148 3147 3147 3147 3146 3145 3145 3145 3146 3145 3143 3141 3141 3140 3140 3139 3138 3136 3135 3133 3131 3129 3128 3127 3126 3125 3125 3124 3124 3123 3123 3123 3123 3123 3123
3155 3153 3151 3150 3147 3147 3147 3145 3144 3143 3143 3141 3141 3141 3141 3142 3142 3141 3139 3138 3138 3137 3137 3136 3134 3133 3132 3130 3128 3127 3126 3125 3124 3123 3122 3122 3121 3121 3121 3121 3121 3121
3152 3150 3149 3147 3145 3145 3144 3143 3141 3140 3138 3137 3137 3138 3138 3138 3138 3138 3137 3136 3135 3135 3134 3133 3132 3131 3130 3129 3127 3126 3125 3123 3122 3122 3121 3120 3120 3120 3120 3120 3120 3119
3151 3149 3148 3146 3144 3142 3141 3140 3139 3137 3136 3135 3134 3135 3134 3134 3135 3135 3135 3134 3133 3132 3131 3131 3130 3129 3128 3127 3126 3124 3124 3123 3121 3121 3120 3119 3119 3119 3118 3119 3119 3118
3149 3147 3146 3144 3142 3141 3139 3137 3136 3135 3134 3133 3132 3131 3131 3130 3131 3131 3131 3131 3131 3130 3129 3128 3128 3127 3126 3125 3124 3123 3122 3121 3120 3120 3119 3118 3118 3117 3117 3117 3117 3117
3147 3146 3144 3142 3141 3139 3138 3136 3134 3133 3131 3130 3129 3128 3127 3127 3127 3127 3128 3128 3128 3127 3127 3126 3126 3125 3124 3123 3122 3121 3120 3119 3119 3119 3118 3117 3117 3116 3116 3116 3116 3115
3146 3144 3143 3141 3139 3137 3136 3134 3132 3130 3129 3128 3126 3125 3125 3124 3123 3123 3124 3124 3125 3125 3124 3124 3123 3123 3122 3121 3120 3120 3119 3118 3118 3117 3117 3116 3116 3115 3115 3115 3115 3114
3145 3143 3141 3139 3138 3136 3134 3132 3130 3128 3127 3125 3124 3123 3122 3121 3120 3120 3120 3121 3122 3122 3122 3122 3121 3120 3120 3119 3118 3118 3117 3116 3116 3116 3115 3115 3115 3114 3114 3114 3114 3113
3144 3142 3140 3138 3136 3135 3133 3131 3129 3127 3125 3123 3122 3121 3119 3118 3117 3117 3117 3118 3118 3119 3119 3119 3119 3118 3118 3117 3117 3116 3115 3115 3114 3114 3113 3113 3113 3113 3113 3112 3112 3112
3143 3141 3139 3137 3135 3134 3132 3130 3128 3125 3123 3122 3120 3119 3117 3116 3114 3113 3113 3114 3114 3115 3116 3117 3117 3116 3116 3116 3115 3114 3113 3113 3113 3112 3112 3111 3111 3111 3111 3111 3110 3110
3142 3140 3138 3136 3134 3132 3130 3128 3126 3124 3122 3120 3118 3117 3115 3113 3111 3110 3109 3109 3110 3111 3112 3113 3114 3114 3114 3114 3113 3112 3111 3111 3111 3110 3110 3109 3110 3109 3109 3109 3109 3109
3140 3138 3136 3134 3132 3130 3129 3127 3124 3122 3120 3118 3116 3114 3113 3111 3108 3106 3106 3106 3107 3107 3108 3109 3111 3112 3112 3112 3111 3110 3109 3109 3109 3108 3108 3108 3108 3108 3107 3107 3107 3108
3137 3136 3134 3133 3131 3128 3126 3124 3122 3120 3117 3115 3113 3112 3110 3108 3106 3104 3103 3102 3103 3103 3104 3105 3108 3109 3110 3110 3109 3109 3108 3107 3107 3106 3106 3106 3106 3106 3106 3106 3106 3106
3134 3133 3132 3130 3129 3126 3124 3122 3119 3117 3115 3113 3111 3109 3107 3106 3104 3103 3102 3100 3099 3099 3099 3100 3103 3106 3108 3108 3107 3107 3107 3106 3105 3105 3104 3104 3104 3104 3104 3104 3105 3105
3130 3129 3129 3127 3126 3123 3121 3119 3116 3114 3112 3110 3108 3106 3105 3103 3102 3101 3100 3099 3097 3096 3096 3097 3098 3100 3103 3105 3105 3105 3105 3105 3104 3104 3103 3103 3102 3102 3102 3103 3103 3104
3126 3126 3125 3124 3122 3120 3117 3115 3113 3111 3109 3107 3106 3104 3102 3101 3100 3098 3096 3095 3094 3094 3095 3096 3096 3097 3099 3101 3102 3102 3102 3103 3103 3102 3102 3101 3101 3100 3101 3101 3102 3102
3124 3122 3121 3120 3118 3116 3114 3111 3109 3107 3105 3103 3102 3100 3099 3098 3097 3095 3093 3092 3091 3091 3092 3093 3094 3095 3095 3096 3098 3099 3099 3100 3101 3101 3100 3100 3099 3099 3099 3099 3100 3101
3122 3120 3118 3116 3114 3113 3111 3108 3106 3104 3102 3100 3098 3097 3096 3095 3094 3092 3090 3089 3088 3088 3089 3090 3090 3091 3093 3093 3094 3095 3096 3097 3098 3099 3099 3098 3098 3098 3097 3098 3098 3099
3120 3118 3116 3113 3111 3110 3109 3106 3104 3101 3099 3097 3096 3094 3093 3092 3091 3090 3088 3087 3086 3086 3086 3086 3086 3087 3089 3090 3091 3092 3093 3094 3096 3097 3097 3097 3097 3096 3096 3096 3097 3097
3118 3116 3113 3111 3109 3108 3107 3105 3102 3100 3097 3095 3094 3093 3091 3090 3089 3087 3086 3085 3084 3083 3082 3082 3082 3083 3085 3087 3088 3089 3090 3091 3093 3094 3095 3095 3095 3095 3095 3095 3095 3096
3116 3113 3111 3109 3108 3107 3105 3103 3101 3099 3096 3094 3092 3091 3090 3088 3087 3086 3084 3083 3082 3081 3080 3079 3079 3080 3081 3083 3085 3086 3087 3088 3089 3091 3092 3093 3093 3093 3093 3093 3094 3094
3114 3112 3110 3108 3106 3105 3103 3101 3099 3097 3095 3093 3090 3089 3088 3087 3085 3084 3083 3082 3080 3079 3078 3077 3077 3077 3078 3079 3081 3082 3083 3085 3086 3087 3089 3090 3091 3092 3092 3092 3092 3092
3112 3110 3108 3105 3104 3103 3102 3099 3097 3096 3094 3091 3089 3088 3087 3085 3084 3082 3081 3080 3078 3077 3076 3075 3075 3074 3075 3075 3075 3077 3079 3081 3082 3084 3086 3088 3089 3089 3090 3090 3090 3090
3110 3107 3105 3103 3101 3101 3099 3097 3096 3094 3092 3090 3088 3086 3085 3083 3082 3080 3079 3078 3077 3075 3075 3074 3073 3072 3071 3071 3071 3073 3075 3077 3078 3080 3083 3085 3086 3087 3088 3088 3088 3088